Weather in Zastavna

Ukraine / Chernovtci District     48˚31′12″N   25˚50′41″E
temp.,
°C
wind,
m/s
gust,
m/s
humid.,
%
clouds,
%
prec.,
mm/h
press.,
hPa
HPBL,
m
27 november, fri
fri2723:00+1˚wnw11550 0.0 102422
02:00w12540 0.0 102421
05:00wnw116188 0.0 102321
08:00w116389 0.0 102221
11:00+4˚wsw224796 0.0 1022166
14:00+5˚wsw124298 0.0 1021134
17:00+3˚nnw1253100 0.0 102122
20:00+2˚wnw2279100 0.0 102235
28 november, sat
sat2823:00+2˚w2390100 0.0 1022120
02:00+2˚wsw3492100 0.1 1021160
05:00+1˚w3597100 1.0 1021198
08:00+1˚wsw2397100 1.4 1021119
11:00+2˚sw2295100 0.2 1020166
14:00+2˚nnw1296100 1.3 1019181
17:00+1˚wsw1196100 0.9 1019105
20:00+1˚w2296100 1.5 1020163
29 november, sun
sun2923:00wsw2296100 0.1 102062
02:00−1˚w1294100 0.1 102039
05:00w2495100 0.1 1020258
08:00−1˚wnw3594100 0.1 1021275
11:00nw347794 0.1 1021572
14:00+1˚nw236894 0.1 1021640
17:00−1˚wsw228048 0.0 102122
20:00−2˚sw118624 0.0 102235
30 november, mon
mon3023:00−2˚wsw118522 0.0 102321
02:00−2˚sw118256 0.0 102349
05:00−2˚ssw118799 0.0 102331
08:00−2˚sw009098 0.0 102527
11:00wnw117997 0.0 1025342
14:00+1˚n116978 0.0 1026672
17:00−1˚wnw117779 0.0 102721
20:00−2˚wnw238743 0.0 102938
1 december, tue
tue123:00−3˚wnw12880 0.0 102924
02:00−3˚w228942 0.0 102986
05:00−3˚w119582 0.0 102927
08:00−4˚w119677 0.1 102931
11:00−1˚ne018053 0.0 1027363
14:00ene126857 0.0 1026542
17:00−2˚e22780 0.0 102522
20:00−3˚ese11800 0.0 102622